Temperature
22 21 21 21 21 22 22 23 23 23 24 24 24 24 22 21 20 19 18 18 18 18 17 18 18 17 17 18 17 18 18 18 18 18 18 17 17 17 17 17 18 18 18 18 18 18 18 18 18
22 22 22 22 22 22 22 23 23 23 24 24 24 23 22 21 20 18 18 18 18 17 17 18 17 17 17 17 17 17 17 17 17 17 17 17 17 17 17 17 17 17 17 18 18 18 18 18 18
22 22 22 23 23 23 22 23 23 24 24 24 23 22 21 20 19 18 18 18 18 17 17 18 17 17 17 17 17 17 17 17 17 17 17 17 17 17 17 17 17 17 17 17 18 18 18 18 18
22 23 24 23 23 23 23 23 24 24 24 24 23 22 20 19 19 18 18 18 18 17 18 18 18 18 17 17 17 17 17 17 17 17 17 17 17 17 17 17 17 17 17 17 17 18 18 18 18
23 24 23 23 23 24 24 24 24 24 24 24 23 21 19 19 19 18 18 18 18 18 18 18 18 18 17 17 17 17 17 17 17 17 17 17 17 17 17 17 17 17 17 17 17 18 18 18 18
24 24 23 23 24 24 25 25 24 24 24 24 23 21 19 19 19 18 18 18 18 18 18 18 18 18 18 17 17 17 17 17 17 17 17 17 17 17 17 17 17 17 17 17 17 17 17 17 17
24 23 23 24 23 24 25 25 25 24 24 24 24 22 19 19 19 19 19 18 18 18 18 18 18 18 18 17 17 17 17 17 17 17 17 17 17 17 17 17 17 17 17 17 17 17 17 17 17
24 24 24 24 23 24 25 25 25 24 24 24 23 22 20 19 19 19 19 19 19 18 18 18 18 18 18 18 17 17 17 17 17 17 17 17 17 17 17 17 17 17 17 17 17 17 17 17 17
24 24 23 24 24 24 25 25 24 24 24 23 23 22 21 20 19 19 19 19 19 19 18 18 18 18 18 18 17 17 17 17 17 17 17 17 17 17 17 17 17 17 17 17 17 17 17 17 17
25 23 24 25 25 25 25 25 25 25 24 23 22 21 20 20 20 19 19 19 19 19 19 19 18 18 18 18 18 17 17 17 17 17 17 17 17 17 17 17 17 17 17 17 17 17 17 17 17
26 24 25 25 25 25 25 25 25 25 24 24 22 21 20 20 20 20 20 19 19 19 19 19 18 18 18 18 18 18 17 17 17 17 17 17 17 17 17 17 17 17 16 16 16 17 17 17 16
25 25 25 25 25 25 25 25 24 24 23 23 22 21 21 20 20 20 20 20 19 19 19 18 19 19 18 18 18 18 18 17 17 17 17 17 17 17 17 17 16 16 16 16 16 16 16 16 16
25 25 25 25 25 25 24 24 24 23 23 23 22 22 21 21 21 20 20 20 19 19 19 19 18 18 18 18 18 18 17 17 17 17 17 17 17 17 17 16 16 16 16 16 16 16 16 16 16
25 25 25 25 25 24 24 24 24 23 23 23 22 22 21 21 21 21 20 20 20 19 19 19 18 18 18 18 18 18 17 17 17 17 17 17 17 17 17 16 16 16 16 16 16 16 16 16 16
25 25 25 25 25 25 24 24 24 23 23 23 23 22 22 21 21 21 20 20 20 19 19 19 18 18 18 18 18 17 17 17 17 17 17 17 17 17 16 16 16 16 16 16 16 16 16 16 16
25 25 23 25 25 25 24 23 24 23 23 23 23 22 22 21 21 21 21 20 20 20 19 19 19 18 18 18 17 17 17 17 17 17 17 17 17 16 16 16 16 16 16 16 16 16 16 16 16
25 24 24 25 26 26 24 23 24 24 23 23 23 22 22 21 21 21 21 20 20 19 19 19 18 18 18 18 17 17 17 17 16 16 16 16 16 16 16 16 16 16 16 16 16 16 16 16 16
24 25 25 25 25 25 24 24 24 24 24 23 23 22 22 21 21 21 20 20 20 19 19 19 18 18 18 17 17 17 17 16 16 16 16 16 16 16 16 16 16 16 16 16 16 16 15 15 16
26 25 25 25 26 25 25 24 24 24 24 23 23 22 22 22 21 21 20 20 20 19 19 19 18 18 17 17 17 17 16 16 16 16 16 16 16 16 16 16 16 16 15 15 15 15 15 15 15
25 25 25 25 26 26 25 24 25 24 24 23 23 23 22 22 21 21 20 20 19 19 19 19 18 18 17 17 17 16 16 16 16 16 16 16 16 16 16 16 16 15 15 15 15 15 15 15 15
25 25 25 25 25 26 25 24 24 24 24 23 23 23 22 22 21 21 20 20 19 19 19 18 18 18 17 17 17 16 16 16 16 16 16 15 15 15 15 15 15 15 15 15 15 15 15 15 15
24 25 25 25 24 24 25 23 24 24 24 24 23 23 22 22 21 21 20 20 19 19 18 18 18 18 17 17 17 16 16 16 16 16 16 15 15 15 15 15 15 15 15 15 15 15 15 15 15
25 25 25 25 24 24 25 24 24 24 23 23 23 23 22 22 21 21 20 20 19 19 18 18 18 18 17 17 17 16 16 16 16 16 16 15 15 15 15 15 15 15 15 15 15 15 15 15 15
25 25 25 25 24 23 24 24 23 24 24 24 23 23 22 21 21 21 20 19 19 19 18 18 18 17 17 17 17 16 16 16 16 16 16 15 15 15 15 15 15 15 15 15 15 15 15 15 15
25 23 22 22 22 22 25 25 23 24 24 24 23 22 22 21 21 20 20 19 19 18 18 18 17 17 17 17 17 17 16 16 16 16 16 16 15 15 15 15 15 15 15 15 15 15 15 15 15
24 24 22 22 22 24 25 24 23 24 24 24 23 22 22 21 20 20 20 19 19 18 18 18 17 17 17 17 17 17 16 16 16 16 16 16 15 15 15 15 15 15 15 15 15 15 14 14 14
24 24 24 23 23 23 24 24 23 24 24 23 23 22 21 21 20 20 19 19 18 18 18 17 17 17 17 17 17 16 16 16 16 16 16 16 15 15 15 15 15 15 15 15 14 14 14 14 14
24 24 23 23 22 22 23 24 22 22 23 23 22 22 21 21 20 20 19 19 18 18 18 17 17 17 17 17 16 16 16 16 16 16 16 16 16 15 15 15 15 15 15 15 14 14 14 14 14
24 23 23 23 23 22 21 22 24 23 23 23 22 22 21 21 20 19 19 19 18 18 17 17 17 17 17 17 16 16 16 16 16 16 16 16 16 15 15 15 15 15 15 14 14 14 14 14 14
23 23 23 21 22 22 21 22 24 23 23 23 22 21 21 20 20 20 19 18 18 18 17 17 17 17 17 17 16 16 16 16 16 16 16 16 16 15 15 15 15 15 15 14 14 14 14 14 14
Wind_Speed
11 10 6 2 2 1 7 7 8 8 7 9 10 11 13 13 9 7 3 5 7 9 11 12 11 11 12 12 12 12 12 12 13 13 13 13 13 12 12 12 12 13 13 12 12 12 13 12 12
10 6 4 3 1 3 6 7 10 10 7 6 9 12 13 11 10 7 4 5 8 11 13 13 12 12 13 13 12 12 12 12 12 12 13 13 12 12 13 13 13 13 13 12 12 12 12 12 12
10 7 3 2 3 5 6 6 8 8 6 7 8 10 8 6 8 5 5 6 10 12 13 13 13 13 13 13 12 12 12 12 12 12 12 12 12 12 13 13 12 13 12 13 13 13 12 12 12
5 3 2 2 8 9 8 6 6 6 7 8 8 9 8 7 5 6 6 8 10 11 13 12 12 12 13 13 12 12 12 12 12 12 12 12 13 13 12 12 12 12 13 13 13 13 12 12 12
3 3 1 4 8 8 7 7 6 7 6 9 10 10 9 8 9 8 7 8 10 10 12 12 12 12 12 12 12 12 12 12 12 12 12 12 12 12 12 12 13 13 12 13 12 12 12 11 11
3 2 1 5 8 8 7 6 7 7 8 8 9 10 7 7 7 7 7 8 8 8 10 12 12 12 12 12 12 12 11 11 11 12 12 12 12 12 12 12 12 12 12 12 12 12 11 10 10
3 1 3 6 7 7 7 6 6 6 8 6 6 8 7 7 6 7 7 8 7 7 7 10 11 11 12 11 11 10 10 10 10 10 10 10 11 11 11 11 11 11 11 10 10 10 9 9 9
3 1 4 5 6 7 7 6 6 7 7 6 5 7 8 9 8 8 7 7 6 5 5 6 8 10 11 10 9 8 8 8 7 8 7 8 9 10 10 11 10 10 10 9 8 8 7 7 7
2 1 4 4 5 6 6 5 5 5 8 8 10 11 12 12 10 8 6 6 5 5 4 4 5 6 8 9 8 7 7 6 5 5 5 5 6 9 9 10 9 8 8 7 5 4 4 4 4
1 3 5 5 6 6 5 5 4 4 7 8 11 13 13 10 9 7 6 6 5 4 3 3 4 5 6 6 6 4 5 5 4 5 5 4 6 8 9 8 7 6 5 4 3 2 1 1 2
3 3 5 6 6 5 5 5 3 4 5 6 10 12 11 9 7 7 6 6 6 4 3 3 4 5 4 4 5 3 4 3 4 6 7 5 5 6 6 5 5 4 3 2 2 1 2 3 5
4 5 4 4 4 4 3 4 5 6 5 7 9 10 9 8 7 6 6 6 6 6 3 3 3 4 4 6 4 3 3 4 4 6 6 5 3 3 4 3 3 3 3 3 3 3 5 7 8
4 4 4 3 3 3 3 4 4 4 5 6 8 9 8 7 7 7 7 6 7 7 5 3 2 3 4 5 2 4 5 5 5 4 4 5 3 2 3 3 4 4 4 3 3 5 6 7 8
4 5 3 2 2 2 3 2 2 3 4 6 7 7 7 5 5 6 6 6 6 6 6 4 2 3 4 4 3 4 5 4 5 4 4 5 4 3 3 3 3 3 4 3 3 5 4 4 5
4 4 3 3 3 3 2 2 3 5 5 5 5 6 6 6 5 5 5 5 6 5 6 4 3 3 5 5 5 5 4 5 4 4 6 5 5 4 4 3 2 2 5 5 5 5 4 3 4
6 4 3 4 4 4 3 2 4 6 5 4 4 5 4 4 5 5 6 5 5 5 5 5 4 4 5 5 4 3 5 5 4 5 6 6 6 7 5 3 2 4 5 4 2 3 3 3 4
6 5 4 4 5 4 4 2 4 5 5 5 5 6 6 6 4 4 5 6 5 5 5 6 5 4 5 5 4 3 4 4 4 5 5 7 7 7 5 3 3 5 4 2 3 3 3 3 3
4 3 3 3 5 5 4 3 4 6 6 5 6 6 6 7 6 5 5 5 5 4 5 6 6 5 5 3 3 3 3 3 4 4 4 6 6 6 5 2 4 5 3 3 3 3 3 2 2
3 3 3 1 2 3 4 3 5 6 5 5 5 6 6 6 7 6 6 5 6 4 4 5 6 6 5 3 2 3 2 2 2 2 4 4 4 5 5 3 4 4 3 3 3 3 3 2 2
5 5 4 2 3 4 3 4 4 6 6 5 4 5 6 5 7 7 7 5 5 5 3 5 4 6 5 3 2 3 3 2 3 2 3 3 4 4 4 3 3 4 3 4 4 3 2 1 2
6 5 5 4 4 6 5 5 6 7 7 6 5 4 4 5 6 7 7 6 5 5 4 4 4 5 5 5 3 3 3 2 2 2 2 2 3 3 4 4 3 2 2 2 2 2 2 1 2
5 4 5 7 7 5 6 4 4 6 7 7 6 4 4 4 5 6 6 7 6 6 6 5 4 5 5 5 4 4 3 2 3 3 2 1 2 3 3 3 3 2 2 2 1 2 1 2 2
5 5 7 9 9 8 8 5 3 6 6 7 6 5 4 4 5 7 6 6 6 6 6 5 5 5 5 5 5 3 3 2 2 3 3 3 2 2 3 2 2 2 1 2 2 2 2 2 1
6 8 10 10 7 7 8 6 2 3 3 5 5 5 4 3 4 5 6 6 5 5 5 5 5 5 5 5 5 4 4 3 3 3 3 3 2 2 2 2 1 1 1 2 1 1 2 2 2
7 7 4 4 5 5 5 3 3 5 5 4 5 5 4 5 4 5 6 6 5 6 5 5 5 5 4 4 4 5 4 4 4 3 3 3 3 2 2 2 2 1 1 2 2 1 2 2 2
6 7 5 4 4 3 3 2 5 7 6 5 5 5 4 5 4 4 6 6 6 6 5 6 6 5 5 4 3 4 5 3 2 3 3 3 3 3 3 3 2 2 2 2 2 1 1 2 2
6 6 7 8 9 6 2 3 5 6 6 5 5 5 5 4 4 4 5 6 6 6 5 5 6 5 5 5 4 3 4 4 3 2 3 3 3 4 4 3 3 3 2 2 2 2 1 2 2
7 7 5 5 5 5 4 3 4 5 5 5 4 4 4 4 3 4 4 5 6 5 5 6 6 6 5 5 5 4 3 4 3 3 3 3 3 4 4 3 3 4 3 3 2 2 1 2 2
6 7 6 5 5 5 4 1 3 5 4 3 3 3 3 3 3 3 4 4 5 5 5 5 5 6 5 5 5 4 4 4 3 2 2 3 3 4 5 4 4 4 3 3 3 3 2 2 2
6 7 6 5 6 6 5 1 3 4 4 2 2 3 3 2 2 2 3 4 4 5 5 5 5 5 5 5 5 4 4 4 4 3 3 3 3 4 3 3 4 4 4 4 3 3 2 2 2
Wind_Direction
281 259 254 265 280 93 66 58 62 58 55 48 50 59 67 54 55 85 104 76 79 81 83 71 69 70 67 66 64 65 66 67 68 69 70 72 72 72 72 72 71 70 68 66 65 64 64 62 60
281 287 274 245 298 78 75 68 65 62 68 64 60 62 68 64 74 93 92 76 84 82 76 72 75 74 69 67 65 66 66 68 69 71 73 74 74 74 75 74 73 71 69 67 67 66 65 61 58
266 267 268 281 33 60 82 78 80 74 61 64 71 61 56 56 66 87 103 94 86 86 83 77 76 74 69 67 66 67 67 69 71 73 75 76 77 78 78 76 73 70 68 68 67 67 66 61 56
271 263 252 62 69 65 87 106 97 84 72 63 80 76 71 51 71 98 109 99 93 92 91 87 81 78 73 71 69 67 68 69 72 74 77 80 80 80 79 75 72 70 68 68 67 66 66 61 54
243 255 130 91 82 81 77 79 78 74 76 68 77 90 85 76 89 101 96 93 92 93 98 98 91 85 79 76 73 70 69 70 70 72 78 83 83 82 80 75 71 70 70 69 68 67 66 60 52
274 263 115 93 90 87 81 82 84 78 79 84 94 101 94 105 102 103 101 94 94 99 107 111 104 96 89 82 79 76 75 76 74 75 80 85 86 85 81 75 73 70 70 72 71 69 65 59 51
288 327 101 107 103 91 79 69 71 76 74 67 88 101 115 117 120 123 112 106 104 102 111 127 128 117 102 93 87 85 84 83 82 83 86 93 94 91 85 78 74 73 72 74 74 73 67 58 50
305 330 95 97 99 89 82 75 67 72 76 59 59 99 124 132 133 124 116 112 106 107 106 111 120 126 124 116 107 103 103 98 98 101 103 106 107 101 94 85 80 78 78 80 81 80 76 64 53
280 67 76 81 92 100 105 96 84 86 86 79 69 82 114 129 131 121 119 111 101 91 92 98 104 110 119 120 123 136 132 132 128 124 133 134 122 115 101 92 92 91 89 90 95 98 98 86 60
111 72 77 72 82 100 99 93 98 106 101 102 99 102 117 131 137 135 134 121 113 104 93 91 89 98 95 88 110 129 114 131 152 117 104 102 86 95 100 111 114 114 110 107 109 127 106 97 62
89 92 77 74 79 94 98 92 79 86 90 103 119 126 134 142 146 144 131 118 113 101 73 80 95 90 100 94 77 67 86 83 77 88 86 73 83 105 113 128 135 138 121 88 90 90 45 74 68
97 90 80 79 85 91 94 86 68 69 77 89 113 129 140 148 149 143 135 128 127 118 101 61 71 94 92 87 83 67 70 70 54 55 81 76 58 75 85 81 79 102 85 59 59 59 47 49 54
110 106 99 92 98 103 95 86 79 83 91 105 121 135 147 156 151 145 138 139 136 127 126 106 81 87 89 90 77 78 61 56 61 40 61 75 54 64 76 70 49 59 68 60 49 57 51 43 39
105 110 112 124 121 126 118 124 131 126 132 134 141 150 153 149 147 139 139 138 134 130 129 120 115 98 95 95 79 69 68 69 60 31 43 79 67 61 70 72 44 44 49 49 56 69 55 55 48
147 153 160 188 183 159 169 174 168 154 158 152 159 154 151 156 159 153 143 145 135 130 126 130 129 103 93 88 72 77 62 65 58 39 25 60 63 60 62 67 57 52 53 43 54 62 60 68 61
203 196 196 197 191 184 226 224 155 155 163 162 165 144 160 163 177 158 151 141 134 132 133 130 118 101 92 86 77 86 76 61 56 44 24 32 60 67 60 49 41 64 63 52 51 65 59 62 60
226 214 199 187 183 185 213 234 155 160 170 175 177 167 174 169 174 155 144 135 131 132 141 134 125 111 100 102 100 65 82 77 62 48 37 26 36 67 72 40 38 65 61 40 43 59 64 70 77
227 223 228 189 177 197 212 211 174 179 190 194 184 176 175 172 173 157 143 135 137 139 141 140 136 125 115 106 101 85 71 74 73 57 51 40 27 44 73 62 56 59 54 41 42 57 50 64 69
283 285 276 239 216 242 236 225 190 184 195 199 187 182 182 172 158 153 151 148 150 147 137 130 140 128 119 114 119 119 111 101 88 73 67 62 38 38 57 49 57 53 60 45 43 62 48 30 67
266 265 263 243 244 259 245 240 210 187 190 192 203 190 181 170 161 155 154 160 155 140 138 128 129 130 130 128 131 128 123 124 107 81 65 60 61 49 61 63 80 70 60 42 44 63 43 8 36
260 272 285 282 270 257 252 248 218 190 186 182 199 193 188 173 169 161 161 158 149 148 148 143 139 130 134 137 120 106 98 98 109 111 87 53 69 66 55 57 65 76 92 70 51 64 58 5 350
268 277 286 283 274 262 242 258 204 179 175 179 182 176 180 177 169 159 158 157 158 154 149 156 153 134 127 131 130 132 141 147 146 131 134 126 87 84 73 74 69 66 70 74 35 82 66 55 352
290 302 278 270 270 269 256 256 198 175 176 171 168 166 169 172 169 159 159 160 159 150 151 160 146 134 134 138 139 162 146 144 133 129 137 138 116 104 96 82 79 88 84 72 39 48 54 66 36
277 272 262 253 258 262 251 239 191 171 147 148 148 151 155 155 153 150 150 146 143 143 147 147 145 140 140 150 158 164 149 151 149 150 152 152 145 148 134 120 102 97 94 91 66 56 67 63 42
252 268 272 239 220 241 239 221 133 104 87 103 117 129 141 139 143 144 147 143 145 151 153 153 151 146 152 168 170 160 150 163 164 161 153 158 151 151 153 139 138 118 100 94 76 66 63 68 58
255 254 272 289 279 271 221 190 119 107 98 92 100 108 112 127 128 128 142 145 147 152 161 165 158 161 168 172 178 164 152 149 146 165 158 169 151 147 142 137 133 118 108 107 90 83 69 76 64
276 271 281 286 291 291 249 126 121 123 126 118 112 108 109 122 136 139 138 143 150 160 164 167 163 170 175 174 182 163 146 144 146 173 166 159 150 147 145 149 140 136 128 115 110 91 79 87 62
260 293 293 285 292 282 270 219 157 151 140 125 111 108 118 124 133 135 140 153 151 156 170 170 166 171 178 179 176 160 149 146 156 161 163 155 147 148 151 156 152 149 147 144 130 118 104 114 110
233 250 264 279 280 289 294 4 75 136 121 120 117 103 93 113 134 146 148 145 156 158 163 169 175 178 181 183 172 162 163 157 158 157 155 154 157 159 161 166 164 158 163 159 145 150 162 140 137
274 270 276 280 284 285 288 313 84 98 102 108 107 96 96 107 118 130 139 139 152 164 169 179 186 182 180 178 166 166 166 155 160 168 168 161 167 170 166 164 160 164 162 157 159 164 172 162 159
Height
1497 1497 1497 1498 1499 1502 1506 1505 1501 1501 1502 1504 1504 1504 1509 1513 1518 1528 1528 1525 1524 1523 1521 1519 1520 1520 1521 1521 1521 1521 1521 1521 1521 1521 1521 1521 1521 1521 1522 1522 1522 1522 1523 1523 1522 1523 1522 1522 1523
1498 1499 1500 1499 1502 1510 1512 1506 1505 1505 1506 1506 1506 1508 1512 1517 1521 1525 1526 1526 1526 1524 1523 1522 1521 1522 1522 1522 1523 1523 1523 1523 1523 1523 1523 1523 1523 1523 1524 1524 1524 1524 1524 1524 1524 1524 1524 1524 1524
1499 1500 1501 1499 1504 1509 1513 1508 1506 1506 1506 1506 1509 1512 1517 1521 1524 1525 1527 1527 1527 1526 1525 1525 1524 1524 1524 1524 1524 1524 1524 1525 1525 1525 1525 1525 1525 1525 1526 1526 1526 1526 1526 1526 1526 1526 1526 1526 1526
1501 1502 1501 1503 1508 1505 1506 1506 1506 1507 1508 1508 1510 1516 1521 1524 1525 1527 1528 1528 1528 1528 1527 1527 1527 1527 1526 1526 1526 1526 1526 1527 1527 1527 1527 1527 1527 1527 1528 1528 1528 1528 1528 1528 1528 1528 1528 1528 1528
1502 1501 1503 1507 1507 1505 1505 1506 1506 1508 1509 1511 1513 1519 1524 1527 1527 1528 1529 1530 1530 1530 1530 1529 1529 1529 1529 1529 1528 1528 1528 1528 1529 1529 1529 1529 1529 1530 1530 1530 1530 1530 1530 1530 1530 1530 1530 1530 1529
1502 1500 1508 1512 1509 1506 1506 1508 1508 1509 1511 1513 1515 1520 1526 1528 1528 1529 1530 1531 1531 1532 1532 1531 1531 1531 1531 1531 1531 1531 1530 1531 1531 1531 1531 1531 1532 1532 1532 1532 1532 1532 1532 1532 1532 1532 1531 1531 1531
1503 1502 1507 1509 1511 1510 1509 1509 1510 1511 1512 1515 1516 1520 1526 1528 1529 1530 1531 1532 1533 1533 1533 1533 1533 1533 1533 1533 1533 1533 1533 1533 1533 1533 1533 1533 1534 1534 1534 1534 1534 1534 1534 1534 1534 1534 1534 1533 1533
1502 1503 1506 1508 1512 1513 1510 1511 1512 1513 1515 1517 1517 1520 1526 1529 1530 1532 1533 1534 1534 1535 1535 1536 1536 1535 1535 1535 1535 1535 1535 1535 1535 1535 1535 1536 1536 1536 1536 1536 1536 1536 1536 1536 1536 1536 1536 1536 1536
1503 1507 1512 1510 1511 1512 1511 1512 1514 1515 1517 1519 1520 1522 1525 1528 1531 1532 1533 1535 1536 1537 1537 1538 1538 1538 1537 1537 1537 1537 1537 1537 1537 1537 1538 1538 1538 1539 1539 1539 1539 1539 1539 1538 1538 1538 1538 1538 1538
1504 1511 1511 1508 1508 1511 1512 1513 1515 1515 1517 1520 1523 1525 1527 1529 1531 1533 1534 1535 1536 1537 1538 1539 1539 1539 1539 1539 1539 1539 1539 1539 1539 1540 1540 1540 1541 1541 1541 1541 1541 1541 1541 1541 1541 1541 1541 1541 1541
1505 1509 1508 1509 1510 1512 1513 1514 1515 1516 1519 1520 1523 1526 1529 1530 1532 1533 1535 1536 1537 1538 1539 1540 1540 1540 1540 1540 1540 1541 1541 1541 1541 1541 1541 1542 1542 1542 1542 1542 1543 1543 1543 1543 1543 1543 1543 1543 1543
1507 1508 1510 1511 1513 1514 1515 1516 1517 1519 1521 1522 1524 1526 1529 1531 1532 1533 1535 1536 1537 1539 1540 1540 1541 1541 1541 1541 1541 1541 1542 1542 1542 1542 1543 1543 1543 1544 1544 1544 1544 1544 1545 1545 1545 1544 1544 1545 1544
1509 1511 1512 1513 1514 1515 1516 1517 1519 1521 1522 1523 1525 1527 1529 1531 1532 1534 1535 1536 1538 1538 1540 1541 1541 1542 1542 1542 1542 1542 1542 1542 1543 1543 1544 1544 1544 1545 1545 1545 1545 1546 1546 1546 1546 1546 1546 1546 1546
1510 1512 1513 1514 1515 1516 1517 1518 1520 1521 1523 1524 1526 1527 1529 1531 1532 1533 1535 1536 1538 1539 1540 1541 1541 1542 1542 1542 1543 1543 1543 1543 1543 1544 1544 1544 1545 1545 1546 1546 1546 1547 1547 1547 1547 1547 1547 1547 1547
1512 1513 1514 1514 1514 1515 1517 1519 1519 1520 1522 1523 1525 1527 1528 1530 1532 1533 1535 1536 1537 1538 1540 1541 1542 1543 1543 1543 1544 1544 1544 1544 1544 1544 1545 1545 1546 1546 1546 1547 1547 1548 1548 1548 1548 1548 1548 1548 1548
1510 1513 1518 1513 1512 1514 1520 1524 1518 1519 1521 1523 1524 1526 1528 1530 1531 1533 1534 1536 1537 1538 1540 1541 1542 1543 1543 1543 1544 1544 1545 1545 1545 1545 1545 1546 1546 1546 1547 1547 1548 1548 1548 1549 1549 1549 1549 1549 1549
1512 1517 1518 1513 1510 1511 1516 1520 1517 1518 1519 1521 1523 1525 1527 1529 1530 1532 1533 1535 1537 1538 1539 1540 1541 1542 1543 1543 1544 1545 1545 1545 1545 1546 1546 1546 1547 1547 1547 1548 1549 1549 1549 1549 1550 1550 1550 1550 1550
1515 1513 1513 1512 1509 1510 1514 1516 1515 1517 1518 1520 1521 1523 1525 1527 1529 1531 1533 1534 1536 1537 1539 1540 1541 1542 1542 1543 1544 1544 1545 1545 1546 1546 1546 1546 1547 1547 1548 1548 1549 1549 1549 1550 1550 1551 1551 1551 1552
1506 1510 1513 1510 1506 1509 1512 1513 1512 1514 1516 1517 1519 1521 1523 1525 1527 1529 1531 1533 1535 1537 1538 1539 1540 1541 1542 1543 1543 1544 1545 1545 1546 1546 1546 1547 1547 1547 1548 1548 1549 1549 1549 1550 1551 1551 1552 1552 1552
1507 1511 1512 1508 1505 1507 1510 1511 1509 1511 1513 1515 1517 1518 1520 1523 1525 1527 1529 1532 1534 1535 1537 1538 1539 1540 1541 1542 1543 1544 1545 1546 1546 1546 1546 1547 1547 1547 1548 1549 1549 1549 1550 1550 1551 1551 1552 1552 1553
1508 1511 1511 1511 1507 1505 1510 1513 1509 1508 1510 1513 1515 1517 1518 1521 1523 1525 1527 1530 1532 1534 1535 1537 1539 1540 1541 1542 1543 1544 1544 1545 1545 1546 1546 1546 1547 1547 1548 1549 1549 1550 1550 1551 1551 1552 1552 1553 1553
1512 1506 1507 1509 1513 1514 1510 1522 1509 1505 1507 1509 1512 1514 1517 1519 1521 1523 1526 1528 1530 1532 1534 1536 1538 1539 1540 1541 1542 1543 1544 1545 1545 1546 1546 1546 1547 1547 1548 1548 1549 1550 1550 1551 1551 1552 1552 1553 1553
1508 1505 1507 1508 1510 1513 1508 1515 1511 1502 1506 1507 1509 1512 1515 1517 1519 1522 1524 1526 1529 1531 1532 1535 1537 1538 1539 1540 1541 1542 1544 1544 1545 1546 1546 1546 1547 1547 1548 1548 1549 1549 1550 1551 1551 1552 1552 1553 1553
1505 1507 1506 1505 1510 1522 1508 1512 1514 1503 1502 1504 1507 1510 1513 1516 1518 1520 1523 1525 1527 1529 1531 1533 1535 1537 1538 1539 1540 1542 1543 1544 1545 1545 1545 1546 1546 1547 1547 1548 1548 1549 1550 1550 1551 1551 1552 1552 1553
1507 1514 1522 1524 1525 1521 1499 1504 1510 1500 1499 1502 1505 1509 1511 1514 1516 1519 1521 1523 1525 1528 1530 1532 1534 1535 1537 1538 1539 1541 1542 1543 1544 1545 1545 1546 1546 1547 1547 1548 1548 1548 1549 1550 1550 1551 1552 1552 1552
1507 1510 1524 1531 1524 1512 1499 1505 1505 1498 1501 1503 1506 1508 1510 1513 1515 1517 1519 1521 1524 1526 1528 1530 1532 1534 1535 1537 1538 1540 1541 1542 1543 1544 1544 1545 1546 1546 1547 1547 1547 1548 1549 1549 1550 1550 1551 1552 1552
1508 1508 1504 1512 1511 1515 1506 1503 1502 1498 1501 1504 1506 1508 1510 1512 1514 1516 1518 1520 1522 1524 1526 1528 1530 1532 1534 1536 1537 1539 1540 1540 1541 1542 1544 1545 1545 1545 1546 1546 1547 1547 1548 1549 1549 1550 1550 1551 1551
1507 1506 1509 1515 1524 1525 1512 1506 1509 1505 1503 1504 1506 1508 1510 1512 1513 1515 1517 1519 1521 1523 1525 1527 1529 1530 1532 1534 1536 1537 1538 1539 1540 1541 1542 1543 1544 1544 1545 1546 1546 1547 1547 1548 1548 1549 1550 1550 1551
1507 1508 1508 1511 1512 1523 1525 1516 1496 1500 1501 1503 1505 1507 1509 1511 1513 1514 1516 1517 1519 1521 1523 1525 1527 1529 1530 1532 1534 1535 1536 1537 1538 1540 1541 1542 1542 1543 1544 1544 1545 1545 1546 1546 1547 1548 1549 1549 1550
1504 1505 1508 1519 1518 1513 1519 1517 1496 1498 1500 1503 1505 1507 1509 1510 1512 1513 1514 1516 1518 1519 1521 1523 1525 1527 1528 1530 1531 1533 1534 1535 1536 1538 1539 1540 1541 1541 1542 1543 1543 1544 1545 1545 1546 1547 1547 1548 1548